Time,TemperatureF,DewpointF,PressureIn,WindDirection,WindDirectionDegrees,WindSpeedMPH,WindSpeedGustMPH,Humidity,HourlyPrecipIn,Conditions,Clouds,dailyrainin,SoftwareType,DateUTC
2013-01-18 00:00:00,34.5,12.7,27.58,West,265,2.7,6.3,40,0.00,,---,0.00,VWS V14.01,2013-01-18 05:00:00,
2013-01-18 00:01:00,34.3,12.5,27.58,North,6,0.0,0.0,40,0.00,,---,0.00,VWS V14.01,2013-01-18 05:01:00,
2013-01-18 00:06:00,34.3,12.5,27.58,NNE,33,5.8,6.7,40,0.00,,---,0.00,VWS V14.01,2013-01-18 05:06:00,
2013-01-18 00:11:00,34.3,12.0,27.58,West,260,3.1,3.6,39,0.00,,---,0.00,VWS V14.01,2013-01-18 05:11:00,
2013-01-18 00:16:00,34.3,11.4,27.58,ESE,102,7.6,11.0,38,0.00,,---,0.00,VWS V14.01,2013-01-18 05:16:00,
2013-01-18 00:21:00,34.2,11.2,27.61,WNW,284,4.0,4.0,38,0.00,,---,0.00,VWS V14.01,2013-01-18 05:21:00,
2013-01-18 00:26:00,34.0,10.5,27.61,ENE,64,5.8,8.1,37,0.00,,---,0.00,VWS V14.01,2013-01-18 05:26:00,
2013-01-18 00:31:00,34.0,9.9,27.61,ENE,65,8.7,8.7,36,0.00,,---,0.00,VWS V14.01,2013-01-18 05:31:00,
2013-01-18 00:36:00,33.8,9.7,27.61,ESE,103,3.6,3.6,36,0.00,,---,0.00,VWS V14.01,2013-01-18 05:36:00,
2013-01-18 00:41:00,33.8,10.3,27.61,WSW,256,2.7,4.9,37,0.00,,---,0.00,VWS V14.01,2013-01-18 05:41:00,
2013-01-18 00:46:00,33.6,10.7,27.61,ESE,102,2.2,2.7,38,0.00,,---,0.00,VWS V14.01,2013-01-18 05:46:00,
2013-01-18 00:51:00,33.4,11.2,27.61,SSE,147,0.0,4.5,39,0.00,,---,0.00,VWS V14.01,2013-01-18 05:51:00,
2013-01-18 00:56:00,33.3,11.6,27.61,SSW,196,3.6,3.6,40,0.00,,---,0.00,VWS V14.01,2013-01-18 05:56:00,
2013-01-18 01:01:00,33.1,10.8,27.61,SE,138,5.4,7.2,39,0.00,,---,0.00,VWS V14.01,2013-01-18 06:01:00,
2013-01-18 01:06:00,33.1,10.2,27.61,SE,130,2.2,2.7,38,0.00,,---,0.00,VWS V14.01,2013-01-18 06:06:00,
2013-01-18 01:11:00,33.1,10.2,27.61,SE,133,5.4,5.4,38,0.00,,---,0.00,VWS V14.01,2013-01-18 06:11:00,
2013-01-18 01:16:00,33.1,9.1,27.61,ESE,120,4.0,6.3,36,0.00,,---,0.00,VWS V14.01,2013-01-18 06:16:00,
2013-01-18 01:21:00,33.1,9.1,27.64,East,101,5.4,6.3,36,0.00,,---,0.00,VWS V14.01,2013-01-18 06:21:00,
2013-01-18 01:26:00,32.9,8.3,27.64,East,98,3.6,3.6,35,0.00,,---,0.00,VWS V14.01,2013-01-18 06:26:00,
2013-01-18 01:31:00,32.9,8.3,27.64,East,83,2.2,2.2,35,0.00,,---,0.00,VWS V14.01,2013-01-18 06:31:00,
2013-01-18 01:36:00,32.7,8.1,27.64,ESE,110,7.6,8.7,35,0.00,,---,0.00,VWS V14.01,2013-01-18 06:36:00,
2013-01-18 01:41:00,32.7,8.1,27.64,NE,48,3.1,3.6,35,0.00,,---,0.00,VWS V14.01,2013-01-18 06:41:00,
2013-01-18 01:46:00,32.7,7.5,27.64,East,83,0.0,0.0,34,0.00,,---,0.00,VWS V14.01,2013-01-18 06:46:00,
2013-01-18 01:51:00,32.7,7.5,27.64,SE,132,5.4,8.1,34,0.00,,---,0.00,VWS V14.01,2013-01-18 06:51:00,
2013-01-18 01:56:00,32.5,7.3,27.64,SE,133,3.1,3.1,34,0.00,,---,0.00,VWS V14.01,2013-01-18 06:56:00,
2013-01-18 02:01:00,32.5,7.3,27.64,SE,129,5.4,6.3,34,0.00,,---,0.00,VWS V14.01,2013-01-18 07:01:00,
2013-01-18 02:06:00,32.5,6.6,27.67,ESE,117,4.9,6.3,33,0.00,,---,0.00,VWS V14.01,2013-01-18 07:06:00,
2013-01-18 02:11:00,32.4,6.5,27.67,ENE,67,2.7,4.9,33,0.00,,---,0.00,VWS V14.01,2013-01-18 07:11:00,
2013-01-18 02:16:00,32.4,6.5,27.67,ESE,117,0.0,2.7,33,0.00,,---,0.00,VWS V14.01,2013-01-18 07:16:00,
2013-01-18 02:21:00,32.2,6.3,27.67,ESE,102,5.8,6.3,33,0.00,,---,0.00,VWS V14.01,2013-01-18 07:21:00,
2013-01-18 02:26:00,32.2,5.7,27.67,ESE,110,8.1,8.1,32,0.00,,---,0.00,VWS V14.01,2013-01-18 07:26:00,
2013-01-18 02:31:00,32.2,5.7,27.67,ESE,114,3.6,3.6,32,0.00,,---,0.00,VWS V14.01,2013-01-18 07:31:00,
2013-01-18 02:36:00,32.2,5.0,27.67,SE,133,3.1,5.4,31,0.00,,---,0.00,VWS V14.01,2013-01-18 07:36:00,
2013-01-18 02:41:00,32.2,5.0,27.67,ESE,119,3.1,3.1,31,0.00,,---,0.00,VWS V14.01,2013-01-18 07:41:00,
2013-01-18 02:46:00,32.0,4.1,27.67,WNW,284,4.9,4.9,30,0.00,,---,0.00,VWS V14.01,2013-01-18 07:46:00,
2013-01-18 02:51:00,32.0,4.8,27.67,ESE,106,5.4,5.4,31,0.00,,---,0.00,VWS V14.01,2013-01-18 07:51:00,
2013-01-18 02:56:00,32.0,4.8,27.67,SE,129,4.0,4.0,31,0.00,,---,0.00,VWS V14.01,2013-01-18 07:56:00,
2013-01-18 03:01:00,31.8,4.6,27.67,ESE,115,2.7,2.7,31,0.00,,---,0.00,VWS V14.01,2013-01-18 08:01:00,
2013-01-18 03:06:00,31.6,4.5,27.67,ESE,122,2.7,3.1,31,0.00,,---,0.00,VWS V14.01,2013-01-18 08:06:00,
2013-01-18 03:11:00,31.5,3.6,27.67,East,88,5.8,10.1,30,0.00,,---,0.00,VWS V14.01,2013-01-18 08:11:00,
2013-01-18 03:16:00,31.5,4.3,27.67,East,101,5.4,5.4,31,0.00,,---,0.00,VWS V14.01,2013-01-18 08:16:00,
2013-01-18 03:21:00,31.5,4.3,27.67,SSW,198,2.2,3.1,31,0.00,,---,0.00,VWS V14.01,2013-01-18 08:21:00,
2013-01-18 03:26:00,31.3,4.2,27.67,SE,137,3.1,4.0,31,0.00,,---,0.00,VWS V14.01,2013-01-18 08:26:00,
2013-01-18 03:31:00,31.3,4.2,27.67,ESE,117,4.9,4.9,31,0.00,,---,0.00,VWS V14.01,2013-01-18 08:31:00,
2013-01-18 03:36:00,31.1,4.0,27.67,WNW,282,2.2,2.2,31,0.00,,---,0.00,VWS V14.01,2013-01-18 08:36:00,
2013-01-18 03:41:00,30.9,4.5,27.67,East,99,3.1,5.4,32,0.00,,---,0.00,VWS V14.01,2013-01-18 08:41:00,
2013-01-18 03:46:00,30.7,4.4,27.67,SSE,162,2.7,3.1,32,0.00,,---,0.00,VWS V14.01,2013-01-18 08:46:00,
2013-01-18 03:51:00,30.6,4.2,27.67,SE,129,3.6,3.6,32,0.00,,---,0.00,VWS V14.01,2013-01-18 08:51:00,
2013-01-18 03:56:00,30.4,4.7,27.67,East,98,0.0,3.1,33,0.00,,---,0.00,VWS V14.01,2013-01-18 08:56:00,
2013-01-18 04:01:00,30.4,4.7,27.67,ESE,105,3.6,5.4,33,0.00,,---,0.00,VWS V14.01,2013-01-18 09:01:00,
2013-01-18 04:06:00,30.2,4.6,27.67,SE,129,2.7,2.7,33,0.00,,---,0.00,VWS V14.01,2013-01-18 09:06:00,
2013-01-18 04:11:00,30.2,4.6,27.67,North,8,2.2,2.2,33,0.00,,---,0.00,VWS V14.01,2013-01-18 09:11:00,
2013-01-18 04:16:00,30.4,4.1,27.67,ENE,67,3.6,3.6,32,0.00,,---,0.00,VWS V14.01,2013-01-18 09:16:00,
2013-01-18 04:21:00,30.6,3.5,27.67,SSE,149,3.6,3.6,31,0.00,,---,0.00,VWS V14.01,2013-01-18 09:21:00,
2013-01-18 04:26:00,30.7,3.7,27.67,SE,125,5.4,5.4,31,0.00,,---,0.00,VWS V14.01,2013-01-18 09:26:00,
2013-01-18 04:31:00,30.7,3.7,27.67,SE,138,3.1,3.6,31,0.00,,---,0.00,VWS V14.01,2013-01-18 09:31:00,
2013-01-18 04:36:00,30.6,2.8,27.67,North,3,2.7,2.7,30,0.00,,---,0.00,VWS V14.01,2013-01-18 09:36:00,
2013-01-18 04:41:00,30.6,3.5,27.67,East,92,5.4,5.4,31,0.00,,---,0.00,VWS V14.01,2013-01-18 09:41:00,
2013-01-18 04:46:00,30.4,3.4,27.67,SSW,213,2.2,3.6,31,0.00,,---,0.00,VWS V14.01,2013-01-18 09:46:00,
2013-01-18 04:51:00,30.4,2.7,27.67,SE,141,2.7,4.0,30,0.00,,---,0.00,VWS V14.01,2013-01-18 09:51:00,
2013-01-18 04:56:00,30.6,1.4,27.67,SE,141,6.3,6.3,28,0.00,,---,0.00,VWS V14.01,2013-01-18 09:56:00,
2013-01-18 05:01:00,30.6,1.4,27.67,ESE,117,4.0,5.8,28,0.00,,---,0.00,VWS V14.01,2013-01-18 10:01:00,
2013-01-18 05:06:00,30.6,1.4,27.67,SE,139,2.7,2.7,28,0.00,,---,0.00,VWS V14.01,2013-01-18 10:06:00,
2013-01-18 05:11:00,30.4,1.2,27.67,NE,48,2.7,3.1,28,0.00,,---,0.00,VWS V14.01,2013-01-18 10:11:00,
2013-01-18 05:16:00,30.4,1.2,27.67,ENE,71,4.0,4.0,28,0.00,,---,0.00,VWS V14.01,2013-01-18 10:16:00,
2013-01-18 05:21:00,30.2,1.0,27.64,SE,127,3.6,3.6,28,0.00,,---,0.00,VWS V14.01,2013-01-18 10:21:00,
2013-01-18 05:26:00,30.2,2.5,27.64,ENE,58,6.3,7.6,30,0.00,,---,0.00,VWS V14.01,2013-01-18 10:26:00,
2013-01-18 05:31:00,30.2,2.5,27.64,East,81,3.1,3.1,30,0.00,,---,0.00,VWS V14.01,2013-01-18 10:31:00,
2013-01-18 05:36:00,30.2,2.5,27.67,ESE,120,5.4,5.4,30,0.00,,---,0.00,VWS V14.01,2013-01-18 10:36:00,
2013-01-18 05:41:00,30.0,3.1,27.67,ENE,66,3.1,4.0,31,0.00,,---,0.00,VWS V14.01,2013-01-18 10:41:00,
2013-01-18 05:46:00,30.0,3.1,27.67,SE,138,4.9,5.4,31,0.00,,---,0.00,VWS V14.01,2013-01-18 10:46:00,
2013-01-18 05:51:00,29.8,2.9,27.67,ENE,76,2.2,5.4,31,0.00,,---,0.00,VWS V14.01,2013-01-18 10:51:00,
2013-01-18 05:56:00,29.8,2.9,27.67,SE,136,3.6,4.9,31,0.00,,---,0.00,VWS V14.01,2013-01-18 10:56:00,
2013-01-18 06:01:00,29.8,2.9,27.67,South,182,3.1,3.1,31,0.00,,---,0.00,VWS V14.01,2013-01-18 11:01:00,
2013-01-18 06:06:00,29.7,2.7,27.67,SE,127,3.1,3.6,31,0.00,,---,0.00,VWS V14.01,2013-01-18 11:06:00,
2013-01-18 06:11:00,29.5,2.6,27.67,ESE,123,2.2,2.2,31,0.00,,---,0.00,VWS V14.01,2013-01-18 11:11:00,
2013-01-18 06:16:00,29.5,2.6,27.67,WSW,243,2.7,2.7,31,0.00,,---,0.00,VWS V14.01,2013-01-18 11:16:00,
2013-01-18 06:21:00,29.3,2.4,27.67,SW,235,2.7,3.1,31,0.00,,---,0.00,VWS V14.01,2013-01-18 11:21:00,
2013-01-18 06:26:00,29.3,2.4,27.67,SE,142,0.0,2.7,31,0.00,,---,0.00,VWS V14.01,2013-01-18 11:26:00,
2013-01-18 06:31:00,29.1,2.3,27.67,SE,137,0.0,0.0,31,0.00,,---,0.00,VWS V14.01,2013-01-18 11:31:00,
2013-01-18 06:36:00,29.1,2.3,27.67,SE,125,3.1,3.1,31,0.00,,---,0.00,VWS V14.01,2013-01-18 11:36:00,
2013-01-18 06:41:00,28.9,2.8,27.67,ESE,114,3.1,3.1,32,0.00,,---,0.00,VWS V14.01,2013-01-18 11:41:00,
2013-01-18 06:46:00,28.9,2.8,27.67,ESE,112,0.0,2.2,32,0.00,,---,0.00,VWS V14.01,2013-01-18 11:46:00,
2013-01-18 06:51:00,28.9,2.8,27.70,East,81,3.1,3.1,32,0.00,,---,0.00,VWS V14.01,2013-01-18 11:51:00,
2013-01-18 06:56:00,28.8,2.6,27.70,East,91,4.0,4.9,32,0.00,,---,0.00,VWS V14.01,2013-01-18 11:56:00,
2013-01-18 07:01:00,28.8,2.6,27.70,ESE,117,3.6,3.6,32,0.00,,---,0.00,VWS V14.01,2013-01-18 12:01:00,
2013-01-18 07:06:00,28.6,2.5,27.70,SSE,155,0.0,0.0,32,0.00,,---,0.00,VWS V14.01,2013-01-18 12:06:00,
2013-01-18 07:11:00,28.6,2.5,27.70,East,94,0.0,0.0,32,0.00,,---,0.00,VWS V14.01,2013-01-18 12:11:00,
2013-01-18 07:16:00,28.6,2.5,27.70,ESE,116,0.0,0.0,32,0.00,,---,0.00,VWS V14.01,2013-01-18 12:16:00,
2013-01-18 07:21:00,28.6,2.5,27.70,ESE,114,5.8,5.8,32,0.00,,---,0.00,VWS V14.01,2013-01-18 12:21:00,
2013-01-18 07:26:00,28.6,2.5,27.70,ESE,116,4.0,4.0,32,0.00,,---,0.00,VWS V14.01,2013-01-18 12:26:00,
2013-01-18 07:31:00,28.6,3.1,27.70,ESE,118,2.7,2.7,33,0.00,,---,0.00,VWS V14.01,2013-01-18 12:31:00,
2013-01-18 07:36:00,28.6,3.1,27.73,SSE,156,2.2,2.2,33,0.00,,---,0.00,VWS V14.01,2013-01-18 12:36:00,
2013-01-18 07:41:00,28.6,3.1,27.73,SE,138,3.6,3.6,33,0.00,,---,0.00,VWS V14.01,2013-01-18 12:41:00,
2013-01-18 07:46:00,28.6,3.1,27.73,SE,130,2.7,2.7,33,0.00,,---,0.00,VWS V14.01,2013-01-18 12:46:00,
2013-01-18 07:51:00,28.6,3.1,27.73,ESE,122,0.0,0.0,33,0.00,,---,0.00,VWS V14.01,2013-01-18 12:51:00,
2013-01-18 07:56:00,28.6,3.1,27.73,SE,127,4.0,4.0,33,0.00,,---,0.00,VWS V14.01,2013-01-18 12:56:00,
2013-01-18 08:01:00,28.6,3.8,27.73,East,83,6.3,6.3,34,0.00,,---,0.00,VWS V14.01,2013-01-18 13:01:00,
2013-01-18 08:06:00,28.8,3.3,27.76,North,1,2.7,2.7,33,0.00,,---,0.00,VWS V14.01,2013-01-18 13:06:00,
2013-01-18 08:11:00,28.9,3.5,27.76,WSW,250,3.1,3.6,33,0.00,,---,0.00,VWS V14.01,2013-01-18 13:11:00,
2013-01-18 08:16:00,29.3,3.8,27.76,East,98,5.4,5.4,33,0.00,,---,0.00,VWS V14.01,2013-01-18 13:16:00,
2013-01-18 08:21:00,29.5,3.9,27.76,SE,134,3.1,3.1,33,0.00,,---,0.00,VWS V14.01,2013-01-18 13:21:00,
2013-01-18 08:26:00,29.7,4.1,27.76,SSE,152,0.0,0.0,33,0.00,,---,0.00,VWS V14.01,2013-01-18 13:26:00,
2013-01-18 08:31:00,30.0,3.8,27.76,SE,133,3.6,4.0,32,0.00,,---,0.00,VWS V14.01,2013-01-18 13:31:00,
2013-01-18 08:36:00,30.2,3.9,27.76,NE,56,2.7,2.7,32,0.00,,---,0.00,VWS V14.01,2013-01-18 13:36:00,
2013-01-18 08:41:00,30.6,3.5,27.76,ENE,60,4.0,4.0,31,0.00,,---,0.00,VWS V14.01,2013-01-18 13:41:00,
2013-01-18 08:46:00,30.9,3.8,27.76,East,96,3.1,3.1,31,0.00,,---,0.00,VWS V14.01,2013-01-18 13:46:00,
2013-01-18 08:51:00,31.1,3.3,27.79,SE,135,7.2,7.2,30,0.00,,---,0.00,VWS V14.01,2013-01-18 13:51:00,
2013-01-18 08:56:00,31.3,3.5,27.79,SE,125,4.0,4.0,30,0.00,,---,0.00,VWS V14.01,2013-01-18 13:56:00,
2013-01-18 09:01:00,31.6,3.8,27.79,North,7,2.2,2.2,30,0.00,,---,0.00,VWS V14.01,2013-01-18 14:01:00,
2013-01-18 09:06:00,32.0,0.2,27.79,WSW,242,2.7,3.6,25,0.00,,---,0.00,VWS V14.01,2013-01-18 14:06:00,
2013-01-18 09:11:00,32.2,-1.4,27.79,ESE,119,0.0,0.0,23,0.00,,---,0.00,VWS V14.01,2013-01-18 14:11:00,
2013-01-18 09:16:00,32.4,-1.3,27.79,ESE,108,5.8,5.8,23,0.00,,---,0.00,VWS V14.01,2013-01-18 14:16:00,
2013-01-18 09:21:00,32.7,-1.0,27.79,North,0,3.1,4.9,23,0.00,,---,0.00,VWS V14.01,2013-01-18 14:21:00,
2013-01-18 09:26:00,32.9,-3.8,27.79,SE,126,3.1,6.3,20,0.00,,---,0.00,VWS V14.01,2013-01-18 14:26:00,
2013-01-18 09:31:00,33.1,-3.6,27.79,SE,144,2.2,2.2,20,0.00,,---,0.00,VWS V14.01,2013-01-18 14:31:00,
2013-01-18 09:36:00,33.3,-3.5,27.82,WNW,299,3.1,4.0,20,0.00,,---,0.00,VWS V14.01,2013-01-18 14:36:00,
2013-01-18 09:41:00,33.4,-3.3,27.82,East,90,4.5,4.5,20,0.00,,---,0.00,VWS V14.01,2013-01-18 14:41:00,
2013-01-18 09:46:00,33.6,-5.3,27.82,East,98,0.0,2.2,18,0.00,,---,0.00,VWS V14.01,2013-01-18 14:46:00,
2013-01-18 09:51:00,33.8,-6.4,27.82,West,274,2.2,5.4,17,0.00,,---,0.00,VWS V14.01,2013-01-18 14:51:00,
2013-01-18 09:56:00,34.0,-6.2,27.82,East,96,2.2,2.7,17,0.00,,---,0.00,VWS V14.01,2013-01-18 14:56:00,
2013-01-18 10:01:00,34.2,-8.6,27.82,NE,38,2.7,4.0,15,0.00,,---,0.00,VWS V14.01,2013-01-18 15:01:00,
2013-01-18 10:06:00,34.3,-8.5,27.82,NW,314,4.0,4.0,15,0.00,,---,0.00,VWS V14.01,2013-01-18 15:06:00,
2013-01-18 10:11:00,34.3,-13.0,27.82,South,170,2.7,5.8,12,0.00,,---,0.00,VWS V14.01,2013-01-18 15:11:00,
2013-01-18 10:16:00,34.9,-12.6,27.82,SW,233,3.1,3.6,12,0.00,,---,0.00,VWS V14.01,2013-01-18 15:16:00,
2013-01-18 10:21:00,35.2,-12.3,27.82,SW,224,5.8,8.1,12,0.00,,---,0.00,VWS V14.01,2013-01-18 15:21:00,
2013-01-18 10:26:00,35.4,-12.1,27.82,SE,131,4.9,7.6,12,0.00,,---,0.00,VWS V14.01,2013-01-18 15:26:00,
2013-01-18 10:31:00,35.6,-12.0,27.82,SE,124,0.0,2.7,12,0.00,,---,0.00,VWS V14.01,2013-01-18 15:31:00,
2013-01-18 10:36:00,36.0,-11.7,27.82,East,98,5.4,5.4,12,0.00,,---,0.00,VWS V14.01,2013-01-18 15:36:00,
2013-01-18 10:41:00,36.5,-11.3,27.82,WNW,282,3.6,3.6,12,0.00,,---,0.00,VWS V14.01,2013-01-18 15:41:00,
2013-01-18 10:46:00,36.5,-11.3,27.82,ENE,74,8.3,8.3,12,0.00,,---,0.00,VWS V14.01,2013-01-18 15:46:00,
2013-01-18 10:51:00,36.9,-11.0,27.85,North,5,3.1,3.1,12,0.00,,---,0.00,VWS V14.01,2013-01-18 15:51:00,
2013-01-18 10:56:00,37.0,-10.9,27.85,ESE,119,4.0,4.9,12,0.00,,---,0.00,VWS V14.01,2013-01-18 15:56:00,
2013-01-18 11:01:00,37.4,-12.3,27.85,WNW,285,3.1,3.1,11,0.00,,---,0.00,VWS V14.01,2013-01-18 16:01:00,
2013-01-18 11:06:00,37.6,-12.2,27.85,NNE,27,4.9,5.4,11,0.00,,---,0.00,VWS V14.01,2013-01-18 16:06:00,
2013-01-18 11:11:00,37.4,-12.3,27.85,ESE,112,3.6,3.6,11,0.00,,---,0.00,VWS V14.01,2013-01-18 16:11:00,
2013-01-18 11:16:00,37.8,-12.0,27.85,ESE,109,4.0,7.2,11,0.00,,---,0.00,VWS V14.01,2013-01-18 16:16:00,
2013-01-18 11:21:00,38.5,-11.5,27.85,SSE,155,4.0,4.0,11,0.00,,---,0.00,VWS V14.01,2013-01-18 16:21:00,
2013-01-18 11:26:00,38.8,-11.2,27.85,SE,136,3.1,3.1,11,0.00,,---,0.00,VWS V14.01,2013-01-18 16:26:00,
2013-01-18 11:31:00,39.2,-10.9,27.85,SE,135,3.6,3.6,11,0.00,,---,0.00,VWS V14.01,2013-01-18 16:31:00,
2013-01-18 11:36:00,39.2,-10.9,27.85,NW,312,4.0,4.9,11,0.00,,---,0.00,VWS V14.01,2013-01-18 16:36:00,
2013-01-18 11:41:00,39.2,-10.9,27.85,North,6,5.4,5.4,11,0.00,,---,0.00,VWS V14.01,2013-01-18 16:41:00,
2013-01-18 11:46:00,39.2,-10.9,27.85,NW,324,4.0,4.0,11,0.00,,---,0.00,VWS V14.01,2013-01-18 16:46:00,
2013-01-18 11:51:00,39.2,-10.9,27.82,West,260,3.1,4.9,11,0.00,,---,0.00,VWS V14.01,2013-01-18 16:51:00,
2013-01-18 11:56:00,39.6,-10.6,27.82,ENE,76,6.3,6.3,11,0.00,,---,0.00,VWS V14.01,2013-01-18 16:56:00,
2013-01-18 12:01:00,39.9,-10.3,27.82,NNE,32,4.9,4.9,11,0.00,,---,0.00,VWS V14.01,2013-01-18 17:01:00,
2013-01-18 12:06:00,39.9,-10.3,27.82,SE,137,3.6,3.6,11,0.00,,---,0.00,VWS V14.01,2013-01-18 17:06:00,
2013-01-18 12:11:00,40.3,-10.1,27.82,NNW,344,4.5,4.9,11,0.00,,---,0.00,VWS V14.01,2013-01-18 17:11:00,
2013-01-18 12:16:00,40.5,-9.9,27.82,SW,225,3.1,5.4,11,0.00,,---,0.00,VWS V14.01,2013-01-18 17:16:00,
2013-01-18 12:21:00,40.6,-9.8,27.82,North,4,4.0,4.0,11,0.00,,---,0.00,VWS V14.01,2013-01-18 17:21:00,
2013-01-18 12:26:00,41.0,-9.5,27.82,East,84,0.0,2.7,11,0.00,,---,0.00,VWS V14.01,2013-01-18 17:26:00,
2013-01-18 12:31:00,41.7,-8.9,27.82,West,277,2.7,2.7,11,0.00,,---,0.00,VWS V14.01,2013-01-18 17:31:00,
2013-01-18 12:36:00,42.3,-8.5,27.82,NW,305,2.7,3.6,11,0.00,,---,0.00,VWS V14.01,2013-01-18 17:36:00,
2013-01-18 12:41:00,42.1,-8.6,27.82,NNE,14,2.7,4.0,11,0.00,,---,0.00,VWS V14.01,2013-01-18 17:41:00,
2013-01-18 12:46:00,42.1,-8.6,27.82,NNE,15,5.8,5.8,11,0.00,,---,0.00,VWS V14.01,2013-01-18 17:46:00,
2013-01-18 12:51:00,42.3,-8.5,27.82,East,99,3.6,4.0,11,0.00,,---,0.00,VWS V14.01,2013-01-18 17:51:00,
2013-01-18 12:56:00,42.6,-8.2,27.82,SSE,153,2.7,3.6,11,0.00,,---,0.00,VWS V14.01,2013-01-18 17:56:00,
2013-01-18 13:01:00,43.2,-9.7,27.82,NNE,28,4.0,4.0,10,0.00,,---,0.00,VWS V14.01,2013-01-18 18:01:00,
2013-01-18 13:06:00,43.5,-9.4,27.82,WNW,301,4.0,4.0,10,0.00,,---,0.00,VWS V14.01,2013-01-18 18:06:00,
2013-01-18 13:11:00,44.1,-9.0,27.82,South,180,2.2,2.2,10,0.00,,---,0.00,VWS V14.01,2013-01-18 18:11:00,
2013-01-18 13:16:00,44.4,-8.8,27.82,WSW,253,2.2,3.6,10,0.00,,---,0.00,VWS V14.01,2013-01-18 18:16:00,
2013-01-18 13:21:00,44.8,-8.5,27.79,SW,217,5.4,5.4,10,0.00,,---,0.00,VWS V14.01,2013-01-18 18:21:00,
2013-01-18 13:26:00,45.3,-8.1,27.79,West,270,4.0,5.4,10,0.00,,---,0.00,VWS V14.01,2013-01-18 18:26:00,
2013-01-18 13:31:00,45.3,-8.1,27.79,SSW,200,0.0,2.2,10,0.00,,---,0.00,VWS V14.01,2013-01-18 18:31:00,
2013-01-18 13:36:00,45.5,-7.9,27.79,NNW,336,2.7,2.7,10,0.00,,---,0.00,VWS V14.01,2013-01-18 18:36:00,
2013-01-18 13:41:00,45.9,-7.6,27.79,WNW,287,3.6,5.8,10,0.00,,---,0.00,VWS V14.01,2013-01-18 18:41:00,
2013-01-18 13:46:00,46.0,-7.5,27.79,West,266,2.7,3.6,10,0.00,,---,0.00,VWS V14.01,2013-01-18 18:46:00,
2013-01-18 13:51:00,46.9,-8.9,27.79,NW,319,2.2,2.7,9,0.00,,---,0.00,VWS V14.01,2013-01-18 18:51:00,
2013-01-18 13:56:00,47.3,-8.7,27.79,North,0,3.1,3.6,9,0.00,,---,0.00,VWS V14.01,2013-01-18 18:56:00,
2013-01-18 14:01:00,47.8,-8.3,27.79,SSW,200,5.4,5.8,9,0.00,,---,0.00,VWS V14.01,2013-01-18 19:01:00,
2013-01-18 14:06:00,48.6,-7.7,27.79,East,100,0.0,0.0,9,0.00,,---,0.00,VWS V14.01,2013-01-18 19:06:00,
2013-01-18 14:11:00,48.7,-7.6,27.79,SSE,165,4.9,4.9,9,0.00,,---,0.00,VWS V14.01,2013-01-18 19:11:00,
2013-01-18 14:16:00,49.1,-7.3,27.79,North,11,2.7,3.1,9,0.00,,---,0.00,VWS V14.01,2013-01-18 19:16:00,
2013-01-18 14:21:00,48.9,-7.4,27.79,NNW,342,0.0,0.0,9,0.00,,---,0.00,VWS V14.01,2013-01-18 19:21:00,
2013-01-18 14:26:00,48.9,-7.4,27.79,SSE,165,3.6,3.6,9,0.00,,---,0.00,VWS V14.01,2013-01-18 19:26:00,
2013-01-18 14:31:00,48.7,-7.6,27.79,North,5,3.6,3.6,9,0.00,,---,0.00,VWS V14.01,2013-01-18 19:31:00,
2013-01-18 14:36:00,48.9,-7.4,27.79,WNW,303,2.7,3.1,9,0.00,,---,0.00,VWS V14.01,2013-01-18 19:36:00,
2013-01-18 14:41:00,49.1,-7.3,27.79,NE,55,2.7,2.7,9,0.00,,---,0.00,VWS V14.01,2013-01-18 19:41:00,
2013-01-18 14:46:00,50.5,-6.2,27.79,North,0,3.6,3.6,9,0.00,,---,0.00,VWS V14.01,2013-01-18 19:46:00,
2013-01-18 14:51:00,51.3,-5.6,27.79,West,276,2.2,2.7,9,0.00,,---,0.00,VWS V14.01,2013-01-18 19:51:00,
2013-01-18 14:56:00,51.3,-5.6,27.79,NE,43,2.7,2.7,9,0.00,,---,0.00,VWS V14.01,2013-01-18 19:56:00,
2013-01-18 15:01:00,51.3,-5.6,27.79,NE,45,0.0,2.2,9,0.00,,---,0.00,VWS V14.01,2013-01-18 20:01:00,
2013-01-18 15:06:00,52.3,-7.2,27.79,East,90,2.7,2.7,8,0.00,,---,0.00,VWS V14.01,2013-01-18 20:06:00,
2013-01-18 15:11:00,53.1,-6.7,27.79,ESE,102,2.7,2.7,8,0.00,,---,0.00,VWS V14.01,2013-01-18 20:11:00,
2013-01-18 15:16:00,53.1,-6.7,27.79,ESE,106,2.2,2.2,8,0.00,,---,0.00,VWS V14.01,2013-01-18 20:16:00,
2013-01-18 15:21:00,54.3,-5.8,27.79,WSW,255,2.2,2.2,8,0.00,,---,0.00,VWS V14.01,2013-01-18 20:21:00,
2013-01-18 15:26:00,54.9,-5.3,27.79,NNE,22,2.7,2.7,8,0.00,,---,0.00,VWS V14.01,2013-01-18 20:26:00,
2013-01-18 15:31:00,54.5,-5.6,27.79,NW,317,0.0,0.0,8,0.00,,---,0.00,VWS V14.01,2013-01-18 20:31:00,
2013-01-18 15:36:00,53.8,-6.2,27.79,East,100,3.6,4.0,8,0.00,,---,0.00,VWS V14.01,2013-01-18 20:36:00,
2013-01-18 15:41:00,55.2,-5.1,27.79,NNE,18,0.0,2.2,8,0.00,,---,0.00,VWS V14.01,2013-01-18 20:41:00,
2013-01-18 15:46:00,55.8,-7.4,27.79,NW,320,0.0,2.2,7,0.00,,---,0.00,VWS V14.01,2013-01-18 20:46:00,
2013-01-18 15:51:00,55.0,-5.2,27.79,NNW,334,2.7,3.1,8,0.00,,---,0.00,VWS V14.01,2013-01-18 20:51:00,
2013-01-18 15:56:00,54.0,-6.0,27.79,WNW,287,2.7,2.7,8,0.00,,---,0.00,VWS V14.01,2013-01-18 20:56:00,
2013-01-18 16:01:00,52.0,-7.5,27.79,West,269,2.2,2.2,8,0.00,,---,0.00,VWS V14.01,2013-01-18 21:01:00,
2013-01-18 16:06:00,51.1,-5.8,27.79,NNW,346,2.7,2.7,9,0.00,,---,0.00,VWS V14.01,2013-01-18 21:06:00,
2013-01-18 16:11:00,50.7,-6.1,27.79,WNW,295,0.0,3.1,9,0.00,,---,0.00,VWS V14.01,2013-01-18 21:11:00,
2013-01-18 16:16:00,50.7,-6.1,27.79,WSW,256,2.7,2.7,9,0.00,,---,0.00,VWS V14.01,2013-01-18 21:16:00,
2013-01-18 16:21:00,50.2,-6.5,27.79,West,266,2.2,2.2,9,0.00,,---,0.00,VWS V14.01,2013-01-18 21:21:00,
2013-01-18 16:26:00,49.6,-6.9,27.79,West,266,0.0,0.0,9,0.00,,---,0.00,VWS V14.01,2013-01-18 21:26:00,
2013-01-18 16:31:00,49.6,-6.9,27.79,West,278,0.0,0.0,9,0.00,,---,0.00,VWS V14.01,2013-01-18 21:31:00,
2013-01-18 16:36:00,50.4,-6.3,27.79,SW,223,2.7,3.1,9,0.00,,---,0.00,VWS V14.01,2013-01-18 21:36:00,
2013-01-18 16:41:00,51.1,-5.8,27.79,SSE,168,0.0,0.0,9,0.00,,---,0.00,VWS V14.01,2013-01-18 21:41:00,
2013-01-18 16:46:00,50.7,-6.1,27.79,SW,218,0.0,0.0,9,0.00,,---,0.00,VWS V14.01,2013-01-18 21:46:00,
2013-01-18 16:51:00,49.1,-7.3,27.79,SW,218,0.0,0.0,9,0.00,,---,0.00,VWS V14.01,2013-01-18 21:51:00,
2013-01-18 16:56:00,47.3,-8.7,27.79,SW,218,0.0,0.0,9,0.00,,---,0.00,VWS V14.01,2013-01-18 21:56:00,
2013-01-18 17:01:00,46.2,-7.4,27.79,SW,218,0.0,0.0,10,0.00,,---,0.00,VWS V14.01,2013-01-18 22:01:00,
2013-01-18 17:06:00,45.1,-8.2,27.82,SW,218,0.0,0.0,10,0.00,,---,0.00,VWS V14.01,2013-01-18 22:06:00,
2013-01-18 17:11:00,44.2,-8.9,27.82,SW,218,0.0,0.0,10,0.00,,---,0.00,VWS V14.01,2013-01-18 22:11:00,
2013-01-18 17:16:00,43.3,-9.6,27.82,SW,218,0.0,0.0,10,0.00,,---,0.00,VWS V14.01,2013-01-18 22:16:00,
2013-01-18 17:21:00,42.4,-8.4,27.82,SW,218,0.0,0.0,11,0.00,,---,0.00,VWS V14.01,2013-01-18 22:21:00,
2013-01-18 17:26:00,41.4,-9.2,27.82,SW,218,0.0,0.0,11,0.00,,---,0.00,VWS V14.01,2013-01-18 22:26:00,
2013-01-18 17:31:00,40.6,-9.8,27.82,SW,218,0.0,0.0,11,0.00,,---,0.00,VWS V14.01,2013-01-18 22:31:00,
2013-01-18 17:36:00,40.6,-9.8,27.82,SW,218,0.0,0.0,11,0.00,,---,0.00,VWS V14.01,2013-01-18 22:36:00,
2013-01-18 17:41:00,40.5,-9.9,27.82,SW,218,0.0,0.0,11,0.00,,---,0.00,VWS V14.01,2013-01-18 22:41:00,
2013-01-18 17:46:00,40.3,-10.1,27.82,SW,218,0.0,0.0,11,0.00,,---,0.00,VWS V14.01,2013-01-18 22:46:00,
2013-01-18 17:51:00,39.6,-10.6,27.82,SW,218,0.0,0.0,11,0.00,,---,0.00,VWS V14.01,2013-01-18 22:51:00,
2013-01-18 17:56:00,39.2,-10.9,27.82,SW,218,0.0,0.0,11,0.00,,---,0.00,VWS V14.01,2013-01-18 22:56:00,
2013-01-18 18:01:00,39.2,-10.9,27.82,SW,218,0.0,0.0,11,0.00,,---,0.00,VWS V14.01,2013-01-18 23:01:00,
2013-01-18 18:06:00,38.7,-11.3,27.82,SW,218,0.0,0.0,11,0.00,,---,0.00,VWS V14.01,2013-01-18 23:06:00,
2013-01-18 18:11:00,38.5,-11.5,27.82,SW,218,0.0,0.0,11,0.00,,---,0.00,VWS V14.01,2013-01-18 23:11:00,
2013-01-18 18:16:00,38.1,-11.8,27.82,SW,218,0.0,0.0,11,0.00,,---,0.00,VWS V14.01,2013-01-18 23:16:00,
2013-01-18 18:21:00,37.8,-12.0,27.82,SW,218,0.0,0.0,11,0.00,,---,0.00,VWS V14.01,2013-01-18 23:21:00,
2013-01-18 18:26:00,37.6,-12.2,27.82,SW,218,0.0,0.0,11,0.00,,---,0.00,VWS V14.01,2013-01-18 23:26:00,
2013-01-18 18:31:00,37.4,-12.3,27.82,SW,218,0.0,0.0,11,0.00,,---,0.00,VWS V14.01,2013-01-18 23:31:00,
2013-01-18 18:36:00,37.4,-12.3,27.82,SW,218,0.0,0.0,11,0.00,,---,0.00,VWS V14.01,2013-01-18 23:36:00,
2013-01-18 18:41:00,37.2,-10.7,27.82,SW,218,0.0,0.0,12,0.00,,---,0.00,VWS V14.01,2013-01-18 23:41:00,
2013-01-18 18:46:00,36.9,-11.0,27.82,SW,218,0.0,0.0,12,0.00,,---,0.00,VWS V14.01,2013-01-18 23:46:00,
2013-01-18 18:51:00,36.7,-11.1,27.82,SW,218,0.0,0.0,12,0.00,,---,0.00,VWS V14.01,2013-01-18 23:51:00,
2013-01-18 18:56:00,36.7,-11.1,27.82,SW,218,0.0,0.0,12,0.00,,---,0.00,VWS V14.01,2013-01-18 23:56:00,
2013-01-18 19:01:00,36.5,-11.3,27.82,SW,218,0.0,0.0,12,0.00,,---,0.00,VWS V14.01,2013-01-19 00:01:00,
2013-01-18 19:06:00,36.3,-11.4,27.82,SW,218,0.0,0.0,12,0.00,,---,0.00,VWS V14.01,2013-01-19 00:06:00,
2013-01-18 19:11:00,36.5,-11.3,27.82,SW,218,0.0,0.0,12,0.00,,---,0.00,VWS V14.01,2013-01-19 00:11:00,
2013-01-18 19:16:00,36.7,-11.1,27.82,SW,218,0.0,0.0,12,0.00,,---,0.00,VWS V14.01,2013-01-19 00:16:00,
2013-01-18 19:21:00,36.5,-11.3,27.82,SW,217,0.0,0.0,12,0.00,,---,0.00,VWS V14.01,2013-01-19 00:21:00,
2013-01-18 19:26:00,36.3,-11.4,27.82,SW,218,0.0,0.0,12,0.00,,---,0.00,VWS V14.01,2013-01-19 00:26:00,
2013-01-18 19:31:00,36.1,-11.6,27.82,SW,218,0.0,0.0,12,0.00,,---,0.00,VWS V14.01,2013-01-19 00:31:00,
2013-01-18 19:36:00,36.0,-11.7,27.82,SW,218,0.0,0.0,12,0.00,,---,0.00,VWS V14.01,2013-01-19 00:36:00,
2013-01-18 19:41:00,36.0,-11.7,27.82,SW,218,0.0,0.0,12,0.00,,---,0.00,VWS V14.01,2013-01-19 00:41:00,
2013-01-18 19:46:00,36.0,-11.7,27.82,SW,218,0.0,0.0,12,0.00,,---,0.00,VWS V14.01,2013-01-19 00:46:00,
2013-01-18 19:51:00,36.0,-11.7,27.82,SW,218,0.0,0.0,12,0.00,,---,0.00,VWS V14.01,2013-01-19 00:51:00,
2013-01-18 19:56:00,35.8,-11.9,27.82,SW,218,0.0,0.0,12,0.00,,---,0.00,VWS V14.01,2013-01-19 00:56:00,
2013-01-18 20:01:00,35.8,-11.9,27.82,SW,218,0.0,0.0,12,0.00,,---,0.00,VWS V14.01,2013-01-19 01:01:00,
2013-01-18 20:06:00,35.8,-11.9,27.82,SW,218,0.0,0.0,12,0.00,,---,0.00,VWS V14.01,2013-01-19 01:06:00,
2013-01-18 20:11:00,35.8,-11.9,27.82,SW,218,0.0,0.0,12,0.00,,---,0.00,VWS V14.01,2013-01-19 01:11:00,
2013-01-18 20:16:00,35.6,-12.0,27.82,SW,218,0.0,0.0,12,0.00,,---,0.00,VWS V14.01,2013-01-19 01:16:00,
2013-01-18 20:21:00,35.6,-12.0,27.82,SW,218,0.0,0.0,12,0.00,,---,0.00,VWS V14.01,2013-01-19 01:21:00,
2013-01-18 20:26:00,35.4,-12.1,27.82,SW,218,0.0,0.0,12,0.00,,---,0.00,VWS V14.01,2013-01-19 01:26:00,
2013-01-18 20:32:00,35.2,-12.3,27.82,SW,218,0.0,0.0,12,0.00,,---,0.00,VWS V14.01,2013-01-19 01:32:00,
2013-01-18 20:36:00,35.1,-12.4,27.82,SW,218,0.0,0.0,12,0.00,,---,0.00,VWS V14.01,2013-01-19 01:36:00,
2013-01-18 20:41:00,34.9,-12.6,27.82,SW,218,0.0,0.0,12,0.00,,---,0.00,VWS V14.01,2013-01-19 01:41:00,
2013-01-18 20:46:00,34.9,-12.6,27.82,SW,218,0.0,0.0,12,0.00,,---,0.00,VWS V14.01,2013-01-19 01:46:00,
2013-01-18 20:51:00,34.9,-12.6,27.82,SW,218,0.0,0.0,12,0.00,,---,0.00,VWS V14.01,2013-01-19 01:51:00,
2013-01-18 20:56:00,34.7,-12.7,27.82,SW,218,0.0,0.0,12,0.00,,---,0.00,VWS V14.01,2013-01-19 01:56:00,
2013-01-18 21:01:00,34.5,-12.9,27.82,SW,218,0.0,0.0,12,0.00,,---,0.00,VWS V14.01,2013-01-19 02:01:00,
2013-01-18 21:06:00,34.3,-13.0,27.82,SW,218,0.0,0.0,12,0.00,,---,0.00,VWS V14.01,2013-01-19 02:06:00,
2013-01-18 21:11:00,34.2,-13.1,27.82,SW,218,0.0,0.0,12,0.00,,---,0.00,VWS V14.01,2013-01-19 02:11:00,
2013-01-18 21:16:00,34.2,-13.1,27.82,SW,218,0.0,0.0,12,0.00,,---,0.00,VWS V14.01,2013-01-19 02:16:00,
2013-01-18 21:21:00,34.0,-13.3,27.82,SW,218,0.0,0.0,12,0.00,,---,0.00,VWS V14.01,2013-01-19 02:21:00,
2013-01-18 21:27:00,33.8,-13.4,27.82,SW,218,0.0,0.0,12,0.00,,---,0.00,VWS V14.01,2013-01-19 02:27:00,
2013-01-18 21:32:00,33.6,-12.0,27.82,SW,217,0.0,0.0,13,0.00,,---,0.00,VWS V14.01,2013-01-19 02:32:00,
2013-01-18 21:37:00,33.6,-12.0,27.82,SW,218,0.0,0.0,13,0.00,,---,0.00,VWS V14.01,2013-01-19 02:37:00,
2013-01-18 21:42:00,33.6,-12.0,27.82,SW,218,0.0,0.0,13,0.00,,---,0.00,VWS V14.01,2013-01-19 02:42:00,
2013-01-18 21:47:00,33.6,-12.0,27.82,SW,218,0.0,0.0,13,0.00,,---,0.00,VWS V14.01,2013-01-19 02:47:00,
2013-01-18 21:52:00,33.6,-12.0,27.82,SW,218,0.0,0.0,13,0.00,,---,0.00,VWS V14.01,2013-01-19 02:52:00,
2013-01-18 21:57:00,33.4,-12.1,27.82,SW,218,0.0,0.0,13,0.00,,---,0.00,VWS V14.01,2013-01-19 02:57:00,
2013-01-18 22:02:00,33.1,-12.4,27.82,SW,218,0.0,0.0,13,0.00,,---,0.00,VWS V14.01,2013-01-19 03:02:00,
2013-01-18 22:07:00,32.9,-12.6,27.82,SW,230,0.0,0.0,13,0.00,,---,0.00,VWS V14.01,2013-01-19 03:07:00,
2013-01-18 22:12:00,32.7,-12.7,27.82,SW,230,0.0,0.0,13,0.00,,---,0.00,VWS V14.01,2013-01-19 03:12:00,
2013-01-18 22:17:00,32.5,-12.8,27.82,SW,230,0.0,0.0,13,0.00,,---,0.00,VWS V14.01,2013-01-19 03:17:00,
2013-01-18 22:22:00,32.5,-12.8,27.82,SW,230,0.0,0.0,13,0.00,,---,0.00,VWS V14.01,2013-01-19 03:22:00,
2013-01-18 22:27:00,32.5,-12.8,27.82,SW,230,0.0,0.0,13,0.00,,---,0.00,VWS V14.01,2013-01-19 03:27:00,
2013-01-18 22:32:00,32.5,-12.8,27.82,SW,230,0.0,0.0,13,0.00,,---,0.00,VWS V14.01,2013-01-19 03:32:00,
2013-01-18 22:37:00,32.5,-12.8,27.82,SW,230,0.0,0.0,13,0.00,,---,0.00,VWS V14.01,2013-01-19 03:37:00,
2013-01-18 22:42:00,32.5,-12.8,27.82,WSW,250,2.7,3.1,13,0.00,,---,0.00,VWS V14.01,2013-01-19 03:42:00,
2013-01-18 22:47:00,32.4,-13.0,27.82,WSW,250,0.0,0.0,13,0.00,,---,0.00,VWS V14.01,2013-01-19 03:47:00,
2013-01-18 22:52:00,32.4,-13.0,27.82,WSW,250,0.0,0.0,13,0.00,,---,0.00,VWS V14.01,2013-01-19 03:52:00,
2013-01-18 22:57:00,32.4,-13.0,27.82,WSW,250,0.0,0.0,13,0.00,,---,0.00,VWS V14.01,2013-01-19 03:57:00,
2013-01-18 23:02:00,32.2,-13.1,27.82,WSW,250,0.0,0.0,13,0.00,,---,0.00,VWS V14.01,2013-01-19 04:02:00,
2013-01-18 23:07:00,32.0,-10.4,27.82,WSW,250,0.0,0.0,15,0.00,,---,0.00,VWS V14.01,2013-01-19 04:07:00,
2013-01-18 23:12:00,31.8,-10.6,27.82,WSW,250,2.2,2.2,15,0.00,,---,0.00,VWS V14.01,2013-01-19 04:12:00,
2013-01-18 23:17:00,31.8,-10.6,27.82,WSW,250,0.0,0.0,15,0.00,,---,0.00,VWS V14.01,2013-01-19 04:17:00,
2013-01-18 23:22:00,31.6,-10.7,27.82,WSW,250,0.0,0.0,15,0.00,,---,0.00,VWS V14.01,2013-01-19 04:22:00,
2013-01-18 23:27:00,31.5,-7.2,27.82,West,281,0.0,2.2,18,0.00,,---,0.00,VWS V14.01,2013-01-19 04:27:00,
2013-01-18 23:32:00,31.5,-7.2,27.82,West,281,0.0,0.0,18,0.00,,---,0.00,VWS V14.01,2013-01-19 04:32:00,
2013-01-18 23:37:00,31.1,-7.4,27.82,West,281,0.0,2.7,18,0.00,,---,0.00,VWS V14.01,2013-01-19 04:37:00,
2013-01-18 23:42:00,31.1,-5.3,27.82,West,279,0.0,0.0,20,0.00,,---,0.00,VWS V14.01,2013-01-19 04:42:00,
2013-01-18 23:47:00,30.9,-5.4,27.82,West,279,0.0,0.0,20,0.00,,---,0.00,VWS V14.01,2013-01-19 04:47:00,
2013-01-18 23:52:00,30.6,-2.8,27.82,West,279,0.0,0.0,23,0.00,,---,0.00,VWS V14.01,2013-01-19 04:52:00,
2013-01-18 23:57:00,30.4,-3.0,27.82,SSW,205,0.0,0.0,23,0.00,,---,0.00,VWS V14.01,2013-01-19 04:57:00,